Regional Weather Roundup
Issued by NWS

Home | Current Version | Previous Version | Text Only | Print | Product List | Glossary On
Versions: 1 2 3 4 5 6 7 8 9 10 11 12 13 14 15 16 17 18 19 20 21 22 23 24 25 26 27 28 29 30 31 32 33 34 35 36 37 38 39 40 41 42 43 44 45 46 47 48 49 50
000
ASUS43 KOAX 182010
RWRNE

WEATHER ROUNDUP FOR NEBRASKA
NATIONAL WEATHER SERVICE OMAHA NE
300 PM CDT SAT APR 18 2015

NOTES: SATELLITE DATA IS BEING USED TO AUGMENT CLOUD COVER ABOVE
       12000 FEET.
       "FAIR" INDICATES FEW OR NO CLOUDS BELOW 12,000 FEET WITH NO
       SIGNIFICANT WEATHER AND/OR OBSTRUCTIONS TO VISIBILITY.

  * THESE STATIONS DO NOT REPORT WEATHER SUCH AS RAIN...SNOW OR FOG.

NEZ001>004-019>022-054>056-182100-
NEBRASKA PANHANDLE

CITY           SKY/WX    TMP DP  RH WIND       PRES   REMARKS
SCOTTSBLUFF    MOSUNNY   56  32  40 SE7       29.89F
ALLIANCE       CLOUDY    56  42  59 MISG      29.88F
CHADRON        CLOUDY    50  46  86 N6        29.91F
KIMBALL        PTSUNNY   53  38  58 E3        29.87F
SIDNEY         PTSUNNY   54  42  64 SE6       29.88F
$$

NEZ057>060-069>072-079>082-182100-
SOUTHWEST NEBRASKA

CITY           SKY/WX    TMP DP  RH WIND       PRES   REMARKS
NORTH PLATTE   PTSUNNY   64  47  53 N5        29.84F
IMPERIAL       MOSUNNY   63  45  51 SE10      29.82F
LEXINGTON      SUNNY     68  51  53 SE5       29.83F
MCCOOK         MOSUNNY   67  47  48 S10       29.82F
OGALLALA       PTSUNNY   61  44  52 NE3       29.84F
$$

NEZ005>010-023>029-035>040-094-182100-
NORTH CENTRAL NEBRASKA

CITY           SKY/WX    TMP DP  RH WIND       PRES   REMARKS
VALENTINE      PTSUNNY   60  48  64 SW3       29.87F
AINSWORTH      CLOUDY    57  53  86 CALM      29.87F
BROKEN BOW     MOSUNNY   68  50  52 MISG      29.84S
O`NEILL        CLOUDY    60  57  91 NE8       29.88S
ORD            CLOUDY    64  51  62 S3        29.84S
THEDFORD       SUNNY     65  46  51 SW3       29.86F
$$

NEZ041-046>049-061>064-073>077-083>087-182100-
SOUTH CENTRAL NEBRASKA

CITY           SKY/WX    TMP DP  RH WIND       PRES   REMARKS
GRAND ISLAND   CLOUDY    66  55  67 SE7       29.85F
AURORA         CLOUDY    68  58  70 SE12      29.85F
HASTINGS       PTSUNNY   68  55  63 S8        29.84F
HEBRON         CLOUDY    69  57  63 S10       29.84F
HOLDREGE       PTSUNNY   69  50  50 CALM      29.83F
KEARNEY *      PTSUNNY   68  52  56 N3        29.83F
YORK           CLOUDY    66  57  72 S9        29.86F
$$

NEZ011>018-030>034-042>045-182100-
NORTHEAST NEBRASKA

CITY           SKY/WX    TMP DP  RH WIND       PRES   REMARKS
ALBION         CLOUDY    65  55  69 SE7       29.86S
BLAIR          LGT RAIN  60  58  91 S13       29.90R
COLUMBUS *     CLOUDY    64  54  68 SE9       29.88F
FREMONT        CLOUDY    63  59  89 SE9       29.89F
TEKAMAH        LGT RAIN  63  60  90 SE9       29.88S
WAYNE          CLOUDY    62  58  87 SE14      29.89S
$$

NEZ050>053-065>068-078-088>093-182100-
SOUTHEAST NEBRASKA

CITY           SKY/WX    TMP DP  RH WIND       PRES   REMARKS
LINCOLN        CLOUDY    63  59  87 E9        29.87F
OMAHA EPPLEY   LGT RAIN  61  59  93 SE14      29.90S FOG
BEATRICE       CLOUDY    64  59  83 SE9       29.86F
FALLS CITY     LGT RAIN  63  60  90 W5        29.87F
NEBRASKA CITY  RAIN      61  61  99 N3        29.88F
PLATTSMOUTH    RAIN      60  58  93 CALM      29.90F
$$

NEZ044-045-051>053-067-182100-
OMAHA AREA

CITY           SKY/WX    TMP DP  RH WIND       PRES   REMARKS
OMAHA EPPLEY   LGT RAIN  61  59  93 SE14      29.90S FOG
BLAIR          LGT RAIN  60  58  91 S13       29.90R
FREMONT        CLOUDY    63  59  89 SE9       29.89F
MILLARD        RAIN      61  59  92 SE9       29.89F
OFFUTT AFB     LGT RAIN  61  59  94 E6        29.89F FOG
PLATTSMOUTH    RAIN      60  58  93 CALM      29.90F
WAHOO          CLOUDY    62  58  86 SE15      29.88F
$$


USA.gov is the U.S. government's official web portal to all federal, state and local government web resources and services.